Location: Unspecified
(56.2330°N, 0.0000°E)
Time: 04:45:31
(UTC+00:00)

Cosmos 628 Rocket - Visible Passes

Search period start: 04 April 2026 00:00
Search period end: 14 April 2026 00:00
Orbit: 939 x 996 km, 83.0° (Epoch: 29 March)

Date Brightness Start Highest point End Pass type
(mag) Time Alt. Az. Time Alt. Az. Time Alt. Az.
4 Apr 9.4 01:39:57 10° WNW 01:41:41 11° NW 01:43:25 10° NNW visible
4 Apr 8.4 20:46:04 18° E 20:47:30 19° ENE 20:51:35 10° NE visible
4 Apr 6.8 22:30:31 58° S 22:31:48 81° E 22:37:55 10° NNE visible
5 Apr 8.5 00:14:59 19° W 00:17:45 26° WNW 00:22:50 10° N visible
5 Apr 7.9 21:08:27 25° ESE 21:09:59 28° E 21:15:04 10° NNE visible
5 Apr 7.1 22:52:55 46° SW 22:54:45 69° WNW 23:00:51 10° N visible
6 Apr 9.0 00:37:22 11° W 00:41:11 19° NW 00:45:23 10° N visible
6 Apr 7.4 21:30:50 35° SE 21:32:36 43° E 21:38:17 10° NNE visible
6 Apr 7.7 23:15:17 31° WSW 23:17:49 46° WNW 23:23:41 10° N visible
7 Apr 9.3 01:01:54 10° WNW 01:04:46 13° NW 01:07:38 10° NNW visible
7 Apr 8.6 20:08:42 12° E 20:11:17 15° ENE 20:14:31 10° NE visible
7 Apr 6.9 21:53:10 40° SSE 21:55:20 65° E 22:01:22 10° NNE visible
7 Apr 8.3 23:37:37 19° WSW 23:41:02 32° WNW 23:46:26 10° N visible
8 Apr 8.2 20:31:01 17° ESE 20:33:41 23° E 20:38:17 10° NNE visible
8 Apr 6.9 22:15:28 35° SSW 22:18:13 85° WNW 22:24:20 10° N visible
8 Apr 8.9 23:59:55 11° WSW 00:04:23 22° NW 00:09:04 10° N visible
9 Apr 7.6 20:53:17 22° SE 20:56:14 34° E 21:01:38 10° NNE visible
9 Apr 7.4 22:37:44 25° SW 22:41:12 57° WNW 22:47:13 10° N visible
10 Apr 9.3 00:24:15 10° W 00:27:53 16° NW 00:31:31 10° N visible
10 Apr 8.7 19:33:08 10° E 19:35:05 12° ENE 19:37:02 10° NE visible
10 Apr 7.1 21:15:31 25° SSE 21:18:54 52° E 21:24:47 10° NNE visible
10 Apr 8.1 22:59:57 16° SW 23:04:21 39° WNW 23:10:01 10° N visible
11 Apr 9.5 00:49:42 10° WNW 00:51:32 11° NW 00:53:23 10° NNW visible
11 Apr 8.4 19:53:28 10° ESE 19:57:26 18° ENE 20:01:23 10° NE visible
11 Apr 6.8 21:37:42 23° S 21:41:42 79° E 21:47:47 10° NNE visible
11 Apr 8.7 23:22:32 10° WSW 23:27:38 27° WNW 23:32:44 10° N visible
12 Apr 7.9 20:15:23 12° SE 20:19:55 28° E 20:24:55 10° NNE visible
12 Apr 7.1 21:59:49 17° SSW 22:04:38 71° WNW 22:10:44 10° N visible
12 Apr 9.2 23:46:49 10° W 23:51:03 19° NW 23:55:17 10° N visible
13 Apr 7.4 20:37:27 13° SSE 20:42:30 42° E 20:48:09 10° NNE visible
13 Apr 7.8 22:21:53 10° SW 22:27:42 47° WNW 22:33:34 10° N visible
